User: anonymous   Login
Location: Mentone
(34.5413°N, 85.5351°W)
Time: 20:39:12
(UTC-06:00)
Language:

Tiros 1 despin weight - Orbit

View from above orbital plane
View from above orbital plane
View from above satellite
View from above satellite

Ground track
Ground track

The orbit data is extracted from the following two-line orbital elements,

1   115U 60002D   16039.89322961 +.00000922 +00000-0 +13967-3 0  9996
2   115 048.1677 358.2297 0034586 081.8683 278.6151 14.82608056955692
Epoch (UTC): 08 February 2016 21:26:15
Eccentricity: 0.0034586
inclination: 48.1677°
perigee height: 597 km
apogee height: 645 km
right ascension of ascending node: 358.2297°
argument of perigee: 81.8683°
revolutions per day: 14.82608056
mean anomaly at epoch: 278.6151°
orbit number at epoch: 95569

The dashed part of the orbit path shows where the satellite is in the earth's shadow,  

DLR